Starlink 3585

operational
NORAD ID: 51875 Int'l Des: 2022-022 Owner: SPXS Country: US Constellation: starlink
LEOCIRCULAR

关于 Starlink 3585

正在加载描述...

实时位置

正在加载3D地球...

即将过境

高度历史

Altitude vs Time

uPlot chart will show altitude changes over time

两行轨道根数

1 51875U 22022Z 25306.47394303 -.00000130 00000-0 99321-5 0 9997
2 51875 53.2173 220.1280 0001378 99.5787 260.5361 15.08839739203919
Epoch: Nov 2, 2025 • Age: 33 hours

当前状态

高度 551.6 km
速度 7.59 km/s
星下点 -34.70°S, 168.83°W
发射日期 Mar 3, 2022
运行时间 3.6 years
类型 internet

技术详情

分类 Payload
质量 297.00 kg
干质量 275.00 kg
总质量 297.00 kg
长度 0.20 m
直径 2.80 m
跨度 9.00 m
形状 Box + pan
制造商 SPXS
平台类型 Starlink
阶段状态 In Orbit
所有者/国家 SPXS/US

大型星座

Loading constellations...